Weather History for LFSD - March, 2013

Change the Weather History Date:

Thursday, March 21, 2013

  Actual Average Record
Temperature  
Mean Temperature 41 °F -  
Max Temperature 53 °F 56 °F 68 °F (2005)
Min Temperature 29 °F 38 °F 26 °F (2009)
Degree Days  
Heating Degree Days 24    
Moisture  
Dew Point 34 °F    
Average Humidity 72    
Maximum Humidity 100    
Minimum Humidity 40    
Precipitation  
Precipitation 0.00 in 0.07 in - ()
Sea Level Pressure  
Sea Level Pressure 30.00 in    
Wind  
Wind Speed 3 mph ()    
Max Wind Speed 7 mph    
Max Gust Speed -    
Visibility 5.1 miles    
Events Fog    
Averages and records for this station are not official NWS values.
T = Trace of Precipitation, MM = Missing Value Source: Averaged Metar Reports

Daily Weather History Graph

Daily Weather History Graph

Search for Another Location

Airport or City:

Trip Planner

Search our weather history database for the weather conditions in past years. The results will help you decide how hot, cold, wet, or windy it might be!

Date:

Astronomy

Mar. 21, 2013 Rise Set
Actual Time 6:40 AM CET 6:53 PM CET
Civil Twilight 6:10 AM CET 7:24 PM CET
Nautical Twilight 5:34 AM CET 8:00 PM CET
Astronomical Twilight 4:57 AM CET 8:37 PM CET
Moon 12:49 PM CET (3/21) 3:12 AM CET (3/21)
Length of Visible Light 13h 14m
Length of Day
12h 13m
Waxing Gibbous, 66% of the Moon is Illuminated
Mar 21
Waxing Gibbous
Mar 27
Full
Apr 3
Last Quarter
Apr 10
New
Apr 18
First Quarter

Hourly Weather History & Observations

Time (CET) Temp. Windchill Dew Point Humidity Pressure Visibility Wind Dir Wind Speed Gust Speed Precip Events Conditions
12:00 AM 39.2 °F 35.0 °F 35.6 °F 87% 30.01 in 6.2 mi SW 5.8 mph - N/A   Unknown
12:30 AM 39.2 °F 37.0 °F 35.6 °F 87% 30.01 in 6.2 mi WSW 3.5 mph - N/A   Unknown
1:00 AM 39 °F - 35 °F 80% 30.04 in 25 mi WSW 2.3 mph - -   Clear
1:00 AM 39.2 °F - 35.6 °F 87% 30.01 in 6.2 mi WSW 2.3 mph - N/A   Overcast
1:30 AM 39.2 °F 35.9 °F 35.6 °F 87% 30.01 in 6.2 mi West 4.6 mph - N/A   Overcast
2:00 AM 39.2 °F - 35.6 °F 87% 30.01 in 6.2 mi Variable 2.3 mph - N/A   Unknown
2:30 AM 39.2 °F - 35.6 °F 87% 30.01 in 6.2 mi Calm Calm - N/A   Unknown
3:00 AM 37.4 °F - 35.6 °F 93% 30.01 in 6.2 mi SSW 1.2 mph - N/A   Unknown
3:30 AM 35.6 °F - 32.0 °F 87% 30.01 in 4.3 mi Variable 1.2 mph - N/A   Unknown
4:00 AM 35.6 °F - 33.8 °F 93% 30.01 in 1.2 mi North 2.3 mph - N/A   Mist
4:30 AM 32.0 °F - 30.2 °F 93% 30.01 in 0.2 mi Variable 2.3 mph - N/A Fog Fog
5:00 AM 32.0 °F - 30.2 °F 93% 30.01 in 1.3 mi WNW 2.3 mph - N/A Fog Light Freezing Fog
5:30 AM 33.8 °F - 32.0 °F 93% 30.01 in 4.3 mi NW 1.2 mph - N/A   Unknown
6:00 AM 32.0 °F - 30.2 °F 93% 30.01 in 0.3 mi Calm Calm - N/A Fog Light Freezing Fog
6:30 AM 30.2 °F - 30.2 °F 100% 30.04 in 2.2 mi Calm Calm - N/A   Mist
7:00 AM 31 °F - 30 °F 94% 30.08 in 0 mi Calm Calm - - Fog Fog
7:00 AM 30.2 °F - 30.2 °F 100% 30.04 in 0.5 mi Calm Calm - N/A Fog Light Freezing Fog
7:30 AM 33.8 °F 30.8 °F 32.0 °F 93% 30.04 in 1.4 mi North 3.5 mph - N/A   Mist
8:00 AM 33.8 °F - 33.8 °F 100% 30.04 in 4.3 mi North 2.3 mph - N/A   Mostly Cloudy
8:30 AM 37.4 °F - 35.6 °F 93% 30.04 in 3.7 mi North 2.3 mph - N/A   Mostly Cloudy
9:00 AM 39.2 °F - 37.4 °F 93% 30.04 in 5.0 mi East 2.3 mph - N/A   Overcast
9:30 AM 42.8 °F - 37.4 °F 81% 30.04 in 6.2 mi Variable 2.3 mph - N/A   Unknown
10:00 AM 44.6 °F - 37.4 °F 76% 30.04 in 6.2 mi Variable 2.3 mph - N/A   Unknown
10:30 AM 46.4 °F - 37.4 °F 71% 30.04 in 6.2 mi Variable 2.3 mph - N/A   Unknown
11:00 AM 48.2 °F - 37.4 °F 66% 30.04 in 6.2 mi South 3.5 mph - N/A   Unknown
11:30 AM 50.0 °F - 37.4 °F 62% 30.04 in 6.2 mi South 4.6 mph - N/A   Unknown
12:00 PM 50.0 °F - 35.6 °F 58% 30.04 in 6.2 mi SSE 6.9 mph - N/A   Scattered Clouds
12:30 PM 50.0 °F - 35.6 °F 58% 30.04 in 6.2 mi South 4.6 mph - N/A   Unknown
1:00 PM 51 °F - 34 °F 40% 30.04 in 34 mi South 6.9 mph - -   Clear
1:00 PM 50.0 °F - 33.8 °F 54% 30.01 in 6.2 mi South 6.9 mph - N/A   Mostly Cloudy
1:30 PM 51.8 °F - 32.0 °F 47% 30.01 in 6.2 mi South 5.8 mph - N/A   Unknown
2:00 PM 53.6 °F - 30.2 °F 41% 30.01 in 6.2 mi South 5.8 mph - N/A   Mostly Cloudy
2:30 PM 51.8 °F - 35.6 °F 54% 30.01 in 6.2 mi SE 5.8 mph - N/A   Mostly Cloudy
3:00 PM 53.6 °F - 33.8 °F 47% 29.98 in 6.2 mi ESE 5.8 mph - N/A   Mostly Cloudy
3:30 PM 53.6 °F - 33.8 °F 47% 29.98 in 6.2 mi ESE 6.9 mph - N/A   Unknown
4:00 PM 53.6 °F - 33.8 °F 47% 29.98 in 6.2 mi ESE 5.8 mph - N/A   Partly Cloudy
4:30 PM 53.6 °F - 33.8 °F 47% 29.98 in 6.2 mi ESE 5.8 mph - N/A   Unknown
5:00 PM 53.6 °F - 33.8 °F 47% 29.98 in 6.2 mi SE 4.6 mph - N/A   Unknown
5:30 PM 51.8 °F - 32.0 °F 47% 29.95 in 6.2 mi East 4.6 mph - N/A   Unknown
6:00 PM 50.0 °F - 35.6 °F 58% 29.95 in 6.2 mi ESE 3.5 mph - N/A   Unknown
6:30 PM 48.2 °F - 35.6 °F 62% 29.98 in 6.2 mi SE 4.6 mph - N/A   Unknown
7:00 PM 46 °F - 35 °F 56% 29.99 in 31 mi ESE 4.6 mph - -   Clear
7:00 PM 46.4 °F 44.3 °F 35.6 °F 66% 29.98 in 6.2 mi ESE 4.6 mph - N/A   Unknown
7:30 PM 44.6 °F 43.1 °F 33.8 °F 66% 29.95 in 6.2 mi East 3.5 mph - N/A   Unknown
8:00 PM 46.4 °F 45.2 °F 33.8 °F 62% 29.95 in 6.2 mi East 3.5 mph - N/A   Unknown
8:30 PM 46.4 °F 42.9 °F 33.8 °F 62% 29.95 in 6.2 mi ENE 6.9 mph - N/A   Unknown
9:00 PM 46.4 °F 43.5 °F 33.8 °F 62% 29.95 in 6.2 mi East 5.8 mph - N/A   Unknown
9:30 PM 44.6 °F 42.2 °F 33.8 °F 66% 29.95 in 6.2 mi East 4.6 mph - N/A   Unknown
10:00 PM 44.6 °F 42.2 °F 33.8 °F 66% 29.95 in 6.2 mi ENE 4.6 mph - N/A   Unknown
10:30 PM 44.6 °F 42.2 °F 33.8 °F 66% 29.95 in 6.2 mi NNE 4.6 mph - N/A   Unknown
11:00 PM 42.8 °F 41.1 °F 33.8 °F 70% 29.95 in 6.2 mi North 3.5 mph - N/A   Unknown
11:30 PM 42.8 °F 39.3 °F 33.8 °F 70% 29.95 in 6.2 mi North 5.8 mph - N/A   Unknown